,,Stat5,,Stat1,,Stat2,,Stat3,,Stat4,,Wind1,,Wind1,
time,status,PA1M_AVG,status,PR1M_SUM,status,RH1M_AVG,status,SR1M_AVG,status,TA1M_AVG,status,W1dAve1m,status,W1sAve1m,
2001-04-14, 00:00:01,VALID,919.984,VALID,0,VALID,98.3294,VALID,-0.0339617,VALID,19.0582,VALID,210,VALID,0.256944,
2001-04-14, 00:01:01,VALID,919.984,VALID,0,VALID,98.3306,VALID,-0.0339617,VALID,19.0619,VALID,199,VALID,0.309966,
2001-04-14, 00:02:01,VALID,919.979,VALID,0,VALID,98.3357,VALID,-0.0339617,VALID,19.0584,VALID,173,VALID,0.108686,
2001-04-14, 00:03:00,VALID,919.974,VALID,0,VALID,98.3039,VALID,-0.0169808,VALID,19.0556,VALID,170,VALID,0.123397,
2001-04-14, 00:04:00,VALID,919.977,VALID,0,VALID,98.309,VALID,-0.0339617,VALID,19.0363,VALID,169,VALID,0.0360243,
2001-04-14, 00:05:00,VALID,919.961,VALID,0,VALID,98.3472,VALID,-0.0169808,VALID,19.0333,VALID,188,VALID,0.218527,
2001-04-14, 00:06:00,VALID,919.948,VALID,0,VALID,98.4336,VALID,-0.0339617,VALID,19.0296,VALID,195,VALID,0.0800781,
2001-04-14, 00:07:00,VALID,919.921,VALID,0,VALID,98.4883,VALID,0,VALID,19.0489,VALID,194,VALID,0.316406,
2001-04-14, 00:08:00,VALID,919.897,VALID,0,VALID,98.5557,VALID,0.0339617,VALID,19.0736,VALID,191,VALID,0.520536,
2001-04-14, 00:09:00,VALID,919.907,VALID,0,VALID,98.5888,VALID,0,VALID,19.1091,VALID,189,VALID,0.743056,
2001-04-14, 00:10:00,VALID,919.867,VALID,0,VALID,98.5595,VALID,0.0679233,VALID,19.1672,VALID,187,VALID,0.638455,
2001-04-14, 00:11:00,VALID,919.849,VALID,0,VALID,98.4375,VALID,0.0509425,VALID,19.1899,VALID,181,VALID,0.538833,
2001-04-14, 00:12:00,VALID,919.825,VALID,0,VALID,98.2518,VALID,0.0169808,VALID,19.1869,VALID,180,VALID,0.355035,
2001-04-14, 00:13:00,VALID,919.783,VALID,0,VALID,98.0687,VALID,0.0339617,VALID,19.158,VALID,173,VALID,0.384821,
2001-04-14, 00:14:00,VALID,919.76,VALID,0,VALID,97.9466,VALID,0.0339617,VALID,19.1223,VALID,150,VALID,0.565717,
2001-04-14, 00:15:00,VALID,919.748,VALID,0,VALID,97.8868,VALID,0.0169808,VALID,19.0867,VALID,167,VALID,0.57977,
2001-04-14, 00:16:00,VALID,919.73,VALID,0,VALID,97.9415,VALID,0,VALID,19.0637,VALID,163,VALID,0.712416,
2001-04-14, 00:17:00,VALID,919.707,VALID,0,VALID,98.0229,VALID,0.0169808,VALID,19.0604,VALID,157,VALID,0.708252,
2001-04-14, 00:18:00,VALID,919.7,VALID,0,VALID,98.07,VALID,0.0169808,VALID,19.0741,VALID,166,VALID,0.735026,
2001-04-14, 00:19:00,VALID,919.684,VALID,0,VALID,98.1145,VALID,0.0169808,VALID,19.0837,VALID,170,VALID,0.678819,
2001-04-14, 00:20:00,VALID,919.674,VALID,0,VALID,98.1157,VALID,0.0169808,VALID,19.0999,VALID,168,VALID,0.47893,
2001-04-14, 00:21:00,VALID,919.655,VALID,0,VALID,98.0115,VALID,0,VALID,19.0803,VALID,147,VALID,0.532484,
2001-04-14, 00:22:00,VALID,919.637,VALID,0,VALID,97.897,VALID,0,VALID,19.0388,VALID,141,VALID,0.408929,
2001-04-14, 00:23:00,VALID,919.626,VALID,0,VALID,97.9059,VALID,0.0339617,VALID,18.9963,VALID,132,VALID,0.763557,
2001-04-14, 00:24:00,VALID,919.614,VALID,0,VALID,97.9644,VALID,0.0169808,VALID,18.9705,VALID,134,VALID,0.921875,
2001-04-14, 00:25:00,VALID,919.597,VALID,0,VALID,98.1513,VALID,0.0339617,VALID,18.9802,VALID,134,VALID,0.892948,
2001-04-14, 00:26:00,VALID,919.592,VALID,0,VALID,98.2963,VALID,0.0509425,VALID,19.0127,VALID,137,VALID,0.687988,
2001-04-14, 00:27:00,VALID,919.583,VALID,0,VALID,98.4286,VALID,0.0169808,VALID,19.0415,VALID,152,VALID,0.634766,
2001-04-14, 00:28:00,VALID,919.557,VALID,0,VALID,98.4616,VALID,0.0509425,VALID,19.0676,VALID,171,VALID,0.725694,
2001-04-14, 00:29:00,VALID,919.57,VALID,0,VALID,98.4591,VALID,0.0169808,VALID,19.08,VALID,173,VALID,0.445786,
2001-04-14, 00:30:00,VALID,919.548,VALID,0,VALID,98.4324,VALID,0,VALID,19.0833,VALID,187,VALID,0.673725,
2001-04-14, 00:31:00,VALID,919.534,VALID,0,VALID,98.3751,VALID,0.0339617,VALID,19.0997,VALID,185,VALID,0.379464,
2001-04-14, 00:32:00,VALID,919.518,VALID,0,VALID,98.3612,VALID,0.0339617,VALID,19.1031,VALID,184,VALID,0.351792,
2001-04-14, 00:33:00,VALID,919.5,VALID,0,VALID,98.3192,VALID,0.0509425,VALID,19.1128,VALID,181,VALID,0.236064,
2001-04-14, 00:34:00,VALID,919.495,VALID,0,VALID,98.2861,VALID,0.0679233,VALID,19.1026,VALID,181,VALID,0.286529,
2001-04-14, 00:35:00,VALID,919.469,VALID,0,VALID,98.2467,VALID,0.0509425,VALID,19.0865,VALID,181,VALID,0.24585,
2001-04-14, 00:36:00,VALID,919.454,VALID,0,VALID,98.2836,VALID,0.0849042,VALID,19.0766,VALID,181,VALID,0,
2001-04-14, 00:37:00,VALID,919.436,VALID,0,VALID,98.2709,VALID,0.0169808,VALID,19.0905,VALID,179,VALID,0,
2001-04-14, 00:38:00,VALID,919.429,VALID,0,VALID,98.2162,VALID,-0.0339617,VALID,19.0817,VALID,179,VALID,0.0383523,
2001-04-14, 00:39:00,VALID,919.427,VALID,0,VALID,98.2658,VALID,-0.0679233,VALID,19.0489,VALID,180,VALID,0.605674,
2001-04-14, 00:40:00,VALID,919.413,VALID,0,VALID,98.3116,VALID,-0.101885,VALID,19.0658,VALID,182,VALID,0.572768,
2001-04-14, 00:41:00,VALID,919.415,VALID,0,VALID,98.2849,VALID,-0.101885,VALID,19.085,VALID,181,VALID,0.627528,
2001-04-14, 00:42:00,VALID,919.398,VALID,0,VALID,98.2531,VALID,-0.0509425,VALID,19.0979,VALID,192,VALID,0.594172,
2001-04-14, 00:43:00,VALID,919.391,VALID,0,VALID,98.1602,VALID,-0.0679233,VALID,19.0974,VALID,207,VALID,0.645693,
2001-04-14, 00:44:00,VALID,919.376,VALID,0,VALID,98.1017,VALID,-0.0509425,VALID,19.1041,VALID,195,VALID,0.56665,
2001-04-14, 00:45:00,VALID,919.378,VALID,0,VALID,98.0331,VALID,-0.0849042,VALID,19.0942,VALID,197,VALID,0.576389,
2001-04-14, 00:46:00,VALID,919.371,VALID,0,VALID,97.9797,VALID,-0.0679233,VALID,19.1046,VALID,200,VALID,0.318142,
2001-04-14, 00:47:00,VALID,919.354,VALID,0,VALID,97.9542,VALID,-0.0849042,VALID,19.1113,VALID,191,VALID,0.775568,
2001-04-14, 00:48:00,VALID,919.344,VALID,0,VALID,97.9314,VALID,-0.0509425,VALID,19.1205,VALID,175,VALID,0.3456,
2001-04-14, 00:49:00,VALID,919.333,VALID,0,VALID,97.8474,VALID,-0.0679233,VALID,19.1272,VALID,190,VALID,0.324554,
2001-04-14, 00:50:00,VALID,919.316,VALID,0,VALID,97.8258,VALID,-0.0679233,VALID,19.117,VALID,200,VALID,0.117188,
2001-04-14, 00:51:00,VALID,919.299,VALID,0,VALID,97.8029,VALID,-0.101885,VALID,19.1138,VALID,193,VALID,0.110642,
2001-04-14, 00:52:00,VALID,919.3,VALID,0,VALID,97.7521,VALID,-0.0849042,VALID,19.1108,VALID,195,VALID,0.549831,
2001-04-14, 00:53:00,VALID,919.287,VALID,0,VALID,97.7203,VALID,-0.0509425,VALID,19.0944,VALID,191,VALID,0.710938,
2001-04-14, 00:54:00,VALID,919.268,VALID,0,VALID,97.7495,VALID,-0.0339617,VALID,19.0879,VALID,201,VALID,0.923828,
2001-04-14, 00:55:00,VALID,919.274,VALID,0,VALID,97.8347,VALID,-0.0509425,VALID,19.0912,VALID,199,VALID,1.16059,
2001-04-14, 00:56:00,VALID,919.26,VALID,0,VALID,97.8512,VALID,-0.0679233,VALID,19.1071,VALID,189,VALID,0.881392,
2001-04-14, 00:57:00,VALID,919.235,VALID,0,VALID,97.7495,VALID,-0.0679233,VALID,19.1299,VALID,180,VALID,0.586554,
2001-04-14, 00:58:00,VALID,919.209,VALID,0,VALID,97.719,VALID,-0.101885,VALID,19.1334,VALID,192,VALID,0.502902,
2001-04-14, 00:59:00,VALID,919.205,VALID,0,VALID,97.7673,VALID,-0.0849042,VALID,19.1332,VALID,213,VALID,0.430607,
2001-04-14, 01:00:00,VALID,919.176,VALID,0,VALID,97.7635,VALID,-0.0679233,VALID,19.1394,VALID,224,VALID,0.47389,
2001-04-14, 01:01:00,VALID,919.171,VALID,0,VALID,97.7521,VALID,-0.0849042,VALID,19.1399,VALID,229,VALID,0.642948,
2001-04-14, 01:02:00,VALID,919.151,VALID,0,VALID,97.7788,VALID,-0.101885,VALID,19.1332,VALID,220,VALID,0.991455,
2001-04-14, 01:03:00,VALID,919.143,VALID,0,VALID,97.7902,VALID,-0.101885,VALID,19.1237,VALID,223,VALID,0.912543,
2001-04-14, 01:04:00,VALID,919.133,VALID,0,VALID,97.8589,VALID,-0.0169808,VALID,19.1297,VALID,216,VALID,0.755859,
2001-04-14, 01:05:00,VALID,919.113,VALID,0,VALID,97.9097,VALID,-0.0339617,VALID,19.1168,VALID,209,VALID,0.611032,
2001-04-14, 01:06:00,VALID,919.097,VALID,0,VALID,97.8894,VALID,-0.0849042,VALID,19.1274,VALID,210,VALID,0.60403,
2001-04-14, 01:07:00,VALID,919.094,VALID,0,VALID,97.9059,VALID,-0.0679233,VALID,19.1173,VALID,216,VALID,0.625223,
2001-04-14, 01:08:00,VALID,919.091,VALID,0,VALID,97.9492,VALID,-0.0169808,VALID,19.1039,VALID,214,VALID,0.798483,
2001-04-14, 01:09:00,VALID,919.09,VALID,0,VALID,97.9415,VALID,-0.0339617,VALID,19.1202,VALID,207,VALID,0.636191,
2001-04-14, 01:10:00,VALID,919.089,VALID,0,VALID,97.897,VALID,-0.0849042,VALID,19.1299,VALID,205,VALID,0.236064,
2001-04-14, 01:11:00,VALID,919.074,VALID,0,VALID,97.8385,VALID,-0.0509425,VALID,19.1265,VALID,206,VALID,0.349365,
2001-04-14, 01:12:00,VALID,919.078,VALID,0,VALID,97.822,VALID,-0.0849042,VALID,19.1565,VALID,206,VALID,0.136285,
2001-04-14, 01:13:00,VALID,919.077,VALID,0,VALID,97.8055,VALID,-0.0509425,VALID,19.1525,VALID,200,VALID,0,
2001-04-14, 01:14:00,VALID,919.052,VALID,0,VALID,97.7343,VALID,-0.0339617,VALID,19.1592,VALID,198,VALID,0,
2001-04-14, 01:15:00,VALID,919.055,VALID,0,VALID,97.7101,VALID,-0.0339617,VALID,19.162,VALID,199,VALID,0,
2001-04-14, 01:16:00,VALID,919.044,VALID,0,VALID,97.7279,VALID,-0.0849042,VALID,19.1496,VALID,199,VALID,0,
2001-04-14, 01:17:00,VALID,919.039,VALID,0,VALID,97.7266,VALID,-0.0509425,VALID,19.1597,VALID,209,VALID,0,
2001-04-14, 01:18:00,VALID,919.026,VALID,0,VALID,97.7279,VALID,-0.0169808,VALID,19.1662,VALID,218,VALID,0,
2001-04-14, 01:19:00,VALID,918.999,VALID,0,VALID,97.733,VALID,-0.0169808,VALID,19.1491,VALID,216,VALID,0,
2001-04-14, 01:20:00,VALID,918.982,VALID,0,VALID,97.7533,VALID,-0.0339617,VALID,19.156,VALID,216,VALID,0,
2001-04-14, 01:21:00,VALID,918.974,VALID,0,VALID,97.7762,VALID,-0.0169808,VALID,19.1429,VALID,214,VALID,0,
2001-04-14, 01:22:00,VALID,918.951,VALID,0,VALID,97.8182,VALID,-0.0679233,VALID,19.1399,VALID,198,VALID,0,
2001-04-14, 01:23:00,VALID,918.956,VALID,0,VALID,97.8309,VALID,-0.0169808,VALID,19.1433,VALID,168,VALID,0,
2001-04-14, 01:24:00,VALID,918.955,VALID,0,VALID,97.7927,VALID,-0.0339617,VALID,19.1173,VALID,176,VALID,0,
2001-04-14, 01:25:00,VALID,918.963,VALID,0,VALID,97.7571,VALID,-0.0339617,VALID,19.1041,VALID,176,VALID,0,
2001-04-14, 01:26:00,VALID,918.97,VALID,0,VALID,97.7546,VALID,-0.0679233,VALID,19.0914,VALID,176,VALID,0,
2001-04-14, 01:27:00,VALID,918.96,VALID,0,VALID,97.8093,VALID,-0.0169808,VALID,19.0748,VALID,194,VALID,0,
2001-04-14, 01:28:00,VALID,918.936,VALID,0,VALID,97.8894,VALID,-0.0339617,VALID,19.0783,VALID,202,VALID,0,
2001-04-14, 01:29:00,VALID,918.911,VALID,0,VALID,97.8983,VALID,-0.0339617,VALID,19.1009,VALID,202,VALID,0,
2001-04-14, 01:30:00,VALID,918.901,VALID,0,VALID,97.8665,VALID,-0.0169808,VALID,19.084,VALID,202,VALID,0,
2001-04-14, 01:31:00,VALID,918.886,VALID,0,VALID,97.8563,VALID,-0.0339617,VALID,19.078,VALID,202,VALID,0,
2001-04-14, 01:32:00,VALID,918.869,VALID,0,VALID,97.8551,VALID,-0.0339617,VALID,19.0616,VALID,202,VALID,0,
2001-04-14, 01:33:00,VALID,918.874,VALID,0,VALID,97.8385,VALID,-0.0509425,VALID,19.0554,VALID,202,VALID,0,
2001-04-14, 01:34:00,VALID,918.829,VALID,0,VALID,97.9148,VALID,-0.0339617,VALID,19.0492,VALID,202,VALID,0,
2001-04-14, 01:35:00,VALID,918.805,VALID,0,VALID,97.9046,VALID,0,VALID,19.0494,VALID,136,VALID,0.247472,
2001-04-14, 01:36:00,VALID,918.782,VALID,0,VALID,97.78,VALID,-0.0339617,VALID,19.0104,VALID,131,VALID,0.59375,
2001-04-14, 01:37:00,VALID,918.776,VALID,0,VALID,97.8474,VALID,-0.0169808,VALID,18.9945,VALID,140,VALID,0.641892,
2001-04-14, 01:38:00,VALID,918.765,VALID,0,VALID,97.9199,VALID,-0.0169808,VALID,18.9781,VALID,152,VALID,0.733887,
2001-04-14, 01:39:00,VALID,918.756,VALID,0,VALID,97.9364,VALID,-0.0679233,VALID,18.9719,VALID,155,VALID,0.828776,
2001-04-14, 01:40:00,VALID,918.747,VALID,0,VALID,97.9898,VALID,-0.0679233,VALID,18.9558,VALID,152,VALID,0.792318,
2001-04-14, 01:41:00,VALID,918.732,VALID,0,VALID,98.0344,VALID,-0.101885,VALID,18.9523,VALID,157,VALID,0.760653,
2001-04-14, 01:42:00,VALID,918.73,VALID,0,VALID,98.0394,VALID,-0.0849042,VALID,18.959,VALID,166,VALID,0.712582,
2001-04-14, 01:43:00,VALID,918.727,VALID,0,VALID,98.056,VALID,-0.0849042,VALID,18.9525,VALID,172,VALID,0.762054,
2001-04-14, 01:44:00,VALID,918.707,VALID,0,VALID,98.1221,VALID,-0.0339617,VALID,18.9525,VALID,177,VALID,0.918428,
2001-04-14, 01:45:00,VALID,918.693,VALID,0,VALID,98.1361,VALID,-0.0679233,VALID,18.959,VALID,184,VALID,0.739654,
2001-04-14, 01:46:00,VALID,918.701,VALID,0,VALID,98.1285,VALID,-0.0339617,VALID,18.9724,VALID,184,VALID,0.68391,
2001-04-14, 01:47:00,VALID,918.688,VALID,0,VALID,98.1005,VALID,0,VALID,18.9585,VALID,188,VALID,0.671143,
2001-04-14, 01:48:00,VALID,918.685,VALID,0,VALID,98.1068,VALID,-0.0679233,VALID,18.9424,VALID,194,VALID,0.221137,
2001-04-14, 01:49:00,VALID,918.683,VALID,0,VALID,98.1488,VALID,-0.0509425,VALID,18.9428,VALID,198,VALID,0.0972222,
2001-04-14, 01:50:00,VALID,918.675,VALID,0,VALID,98.2365,VALID,-0.0169808,VALID,18.9463,VALID,211,VALID,0.412169,
2001-04-14, 01:51:00,VALID,918.659,VALID,0,VALID,98.3319,VALID,-0.0509425,VALID,18.9528,VALID,205,VALID,0.427426,
2001-04-14, 01:52:00,VALID,918.655,VALID,0,VALID,98.3942,VALID,-0.0509425,VALID,18.9555,VALID,209,VALID,0.168527,
2001-04-14, 01:53:00,VALID,918.644,VALID,0,VALID,98.4247,VALID,-0.0679233,VALID,18.9592,VALID,210,VALID,0.263097,
2001-04-14, 01:54:00,VALID,918.634,VALID,0,VALID,98.4731,VALID,-0.0169808,VALID,18.952,VALID,216,VALID,0.723184,
2001-04-14, 01:55:00,VALID,918.626,VALID,0,VALID,98.5176,VALID,-0.0509425,VALID,18.9421,VALID,216,VALID,0.964527,
2001-04-14, 01:56:00,VALID,918.612,VALID,0,VALID,98.5608,VALID,0,VALID,18.9493,VALID,217,VALID,1.00122,
2001-04-14, 01:57:00,VALID,918.617,VALID,0,VALID,98.5799,VALID,-0.0169808,VALID,18.9364,VALID,217,VALID,0.790799,
2001-04-14, 01:58:00,VALID,918.613,VALID,0,VALID,98.6104,VALID,-0.0169808,VALID,18.9331,VALID,217,VALID,0.806424,
2001-04-14, 01:59:00,VALID,918.603,VALID,0,VALID,98.6435,VALID,-0.0679233,VALID,18.9396,VALID,216,VALID,0.672112,
2001-04-14, 02:00:00,VALID,918.603,VALID,0,VALID,98.6638,VALID,-0.0679233,VALID,18.9366,VALID,210,VALID,0.43935,
2001-04-14, 02:01:00,VALID,918.61,VALID,0,VALID,98.6663,VALID,-0.0339617,VALID,18.9398,VALID,202,VALID,0.142634,
2001-04-14, 02:02:00,VALID,918.611,VALID,0,VALID,98.6676,VALID,-0.0509425,VALID,18.9235,VALID,195,VALID,0.467142,
2001-04-14, 02:03:00,VALID,918.592,VALID,0,VALID,98.6803,VALID,-0.0849042,VALID,18.9237,VALID,196,VALID,0.384502,
2001-04-14, 02:04:00,VALID,918.594,VALID,0,VALID,98.7032,VALID,-0.0339617,VALID,18.9038,VALID,209,VALID,0.356419,
2001-04-14, 02:05:00,VALID,918.584,VALID,0,VALID,98.7325,VALID,-0.101885,VALID,18.9071,VALID,219,VALID,0.580322,
2001-04-14, 02:06:00,VALID,918.588,VALID,0,VALID,98.7388,VALID,-0.0679233,VALID,18.9073,VALID,220,VALID,0.457465,
2001-04-14, 02:07:00,VALID,918.557,VALID,0,VALID,98.7363,VALID,-0.0849042,VALID,18.8939,VALID,218,VALID,0.554253,
2001-04-14, 02:08:00,VALID,918.552,VALID,0,VALID,98.7414,VALID,-0.0339617,VALID,18.9172,VALID,218,VALID,0.71946,
2001-04-14, 02:09:00,VALID,918.533,VALID,0,VALID,98.7401,VALID,-0.0169808,VALID,18.9138,VALID,217,VALID,0.535979,
2001-04-14, 02:10:00,VALID,918.518,VALID,0,VALID,98.7363,VALID,-0.0509425,VALID,18.9334,VALID,208,VALID,0.802679,
2001-04-14, 02:11:00,VALID,918.499,VALID,0,VALID,98.7159,VALID,-0.0339617,VALID,18.9461,VALID,224,VALID,0.765625,
2001-04-14, 02:12:00,VALID,918.509,VALID,0,VALID,98.6727,VALID,-0.0169808,VALID,18.9622,VALID,212,VALID,0.71875,
2001-04-14, 02:13:00,VALID,918.493,VALID,0,VALID,98.6269,VALID,-0.0339617,VALID,18.9781,VALID,208,VALID,0.481419,
2001-04-14, 02:14:00,VALID,918.487,VALID,0,VALID,98.5888,VALID,-0.0509425,VALID,18.9876,VALID,220,VALID,0.256836,
2001-04-14, 02:15:00,VALID,918.472,VALID,0,VALID,98.5481,VALID,-0.0339617,VALID,19.0206,VALID,192,VALID,0.63151,
2001-04-14, 02:16:00,VALID,918.452,VALID,0,VALID,98.4438,VALID,-0.0339617,VALID,19.0268,VALID,182,VALID,0.832031,
2001-04-14, 02:17:00,VALID,918.44,VALID,0,VALID,98.3446,VALID,-0.0509425,VALID,19.0358,VALID,189,VALID,0.71733,
2001-04-14, 02:18:00,VALID,918.427,VALID,0,VALID,98.2238,VALID,-0.0509425,VALID,19.0556,VALID,181,VALID,0.60259,
2001-04-14, 02:19:00,VALID,918.414,VALID,0,VALID,98.1157,VALID,-0.0339617,VALID,19.0748,VALID,180,VALID,0.763839,
2001-04-14, 02:20:00,VALID,918.397,VALID,0,VALID,97.9809,VALID,-0.0339617,VALID,19.1013,VALID,199,VALID,0.602252,
2001-04-14, 02:21:00,VALID,918.387,VALID,0,VALID,97.8741,VALID,-0.0509425,VALID,19.111,VALID,206,VALID,0.40076,
2001-04-14, 02:22:00,VALID,918.372,VALID,0,VALID,97.8169,VALID,-0.0509425,VALID,19.1066,VALID,199,VALID,0.266681,
2001-04-14, 02:23:00,VALID,918.37,VALID,0,VALID,97.7495,VALID,-0.0339617,VALID,19.1175,VALID,189,VALID,0.760254,
2001-04-14, 02:24:00,VALID,918.347,VALID,0,VALID,97.7165,VALID,-0.0339617,VALID,19.1073,VALID,205,VALID,0.592014,
2001-04-14, 02:25:00,VALID,918.353,VALID,0,VALID,97.6707,VALID,-0.0509425,VALID,19.1207,VALID,192,VALID,0.683811,
2001-04-14, 02:26:00,VALID,918.348,VALID,0,VALID,97.644,VALID,-0.0509425,VALID,19.1202,VALID,215,VALID,0.726799,
2001-04-14, 02:27:00,VALID,918.325,VALID,0,VALID,97.616,VALID,-0.0169808,VALID,19.1269,VALID,206,VALID,0.765008,
2001-04-14, 02:28:00,VALID,918.321,VALID,0,VALID,97.5791,VALID,-0.0509425,VALID,19.1463,VALID,214,VALID,0.479241,
2001-04-14, 02:29:00,VALID,918.328,VALID,0,VALID,97.5206,VALID,-0.0339617,VALID,19.156,VALID,222,VALID,0.540211,
2001-04-14, 02:30:00,VALID,918.32,VALID,0,VALID,97.5041,VALID,-0.0509425,VALID,19.1625,VALID,220,VALID,0.0709459,
2001-04-14, 02:31:00,VALID,918.324,VALID,0,VALID,97.4545,VALID,-0.0339617,VALID,19.1655,VALID,167,VALID,0.505912,
2001-04-14, 02:32:00,VALID,918.325,VALID,0,VALID,97.4087,VALID,-0.0169808,VALID,19.1687,VALID,225,VALID,0.394043,
2001-04-14, 02:33:00,VALID,918.339,VALID,0,VALID,97.3477,VALID,-0.0679233,VALID,19.159,VALID,242,VALID,0.502604,
2001-04-14, 02:34:00,VALID,918.339,VALID,0,VALID,97.3591,VALID,-0.0169808,VALID,19.1622,VALID,222,VALID,0.383464,
2001-04-14, 02:35:00,VALID,918.344,VALID,0,VALID,97.3896,VALID,-0.0509425,VALID,19.1533,VALID,202,VALID,0.00710227,
2001-04-14, 02:36:00,VALID,918.343,VALID,0,VALID,97.4634,VALID,-0.0509425,VALID,19.1466,VALID,227,VALID,0.000822368,
2001-04-14, 02:37:00,VALID,918.353,VALID,0,VALID,97.5219,VALID,-0.0339617,VALID,19.12,VALID,232,VALID,0.239732,
2001-04-14, 02:38:00,VALID,918.351,VALID,0,VALID,97.5435,VALID,-0.0339617,VALID,19.1076,VALID,283,VALID,0.235064,
2001-04-14, 02:39:00,VALID,918.358,VALID,0,VALID,97.5575,VALID,0,VALID,19.0748,VALID,307,VALID,0.394426,
2001-04-14, 02:40:00,VALID,918.351,VALID,0,VALID,97.6007,VALID,-0.0169808,VALID,19.0524,VALID,299,VALID,0.0456081,
2001-04-14, 02:41:00,VALID,918.346,VALID,0,VALID,97.6885,VALID,-0.0509425,VALID,19.0333,VALID,314,VALID,0.360107,
2001-04-14, 02:42:00,VALID,918.346,VALID,0,VALID,97.7686,VALID,-0.0169808,VALID,18.9973,VALID,313,VALID,0.34809,
2001-04-14, 02:43:00,VALID,918.327,VALID,0,VALID,97.8601,VALID,-0.0339617,VALID,18.991,VALID,315,VALID,0.0301649,
2001-04-14, 02:44:00,VALID,918.336,VALID,0,VALID,97.9593,VALID,0,VALID,18.9712,VALID,315,VALID,0.175663,
2001-04-14, 02:45:00,VALID,918.316,VALID,0,VALID,98.0433,VALID,0,VALID,18.9684,VALID,328,VALID,0.128906,
2001-04-14, 02:46:00,VALID,918.301,VALID,0,VALID,98.1437,VALID,0,VALID,18.9684,VALID,329,VALID,0,
2001-04-14, 02:47:00,VALID,918.289,VALID,0,VALID,98.2022,VALID,-0.0339617,VALID,18.9652,VALID,315,VALID,0.0011489,
2001-04-14, 02:48:00,VALID,918.284,VALID,0,VALID,98.2683,VALID,-0.0339617,VALID,18.9687,VALID,315,VALID,0.0230152,
2001-04-14, 02:49:00,VALID,918.28,VALID,0,VALID,98.3141,VALID,-0.0509425,VALID,18.9625,VALID,322,VALID,0.0825591,
2001-04-14, 02:50:00,VALID,918.278,VALID,0,VALID,98.365,VALID,-0.0509425,VALID,18.9528,VALID,325,VALID,0.0441895,
2001-04-14, 02:51:00,VALID,918.274,VALID,0,VALID,98.398,VALID,0,VALID,18.9463,VALID,326,VALID,0.0798611,
2001-04-14, 02:52:00,VALID,918.277,VALID,0,VALID,98.4502,VALID,0,VALID,18.9359,VALID,326,VALID,0,
2001-04-14, 02:53:00,VALID,918.285,VALID,0,VALID,98.4934,VALID,0.0849042,VALID,18.928,VALID,325,VALID,0.0189394,
2001-04-14, 02:54:00,VALID,918.274,VALID,0,VALID,98.5137,VALID,0.0849042,VALID,18.9186,VALID,325,VALID,0.0273438,
2001-04-14, 02:55:00,VALID,918.301,VALID,0,VALID,98.5176,VALID,0.0849042,VALID,18.9059,VALID,325,VALID,0,
2001-04-14, 02:56:00,VALID,918.287,VALID,0,VALID,98.5087,VALID,0.0849042,VALID,18.8897,VALID,325,VALID,0,
2001-04-14, 02:57:00,VALID,918.293,VALID,0,VALID,98.5214,VALID,0.0509425,VALID,18.88,VALID,325,VALID,0,
2001-04-14, 02:58:00,VALID,918.303,VALID,0,VALID,98.5366,VALID,0.101885,VALID,18.8607,VALID,325,VALID,0,
2001-04-14, 02:59:00,VALID,918.303,VALID,0,VALID,98.5328,VALID,0.0849042,VALID,18.8378,VALID,325,VALID,0,
2001-04-14, 03:00:00,VALID,918.314,VALID,0,VALID,98.5392,VALID,0.0679233,VALID,18.8122,VALID,325,VALID,0,
2001-04-14, 03:01:00,VALID,918.298,VALID,0,VALID,98.5684,VALID,0.0849042,VALID,18.8152,VALID,325,VALID,0,
2001-04-14, 03:02:00,VALID,918.312,VALID,0,VALID,98.6066,VALID,0.101885,VALID,18.7924,VALID,325,VALID,0,
2001-04-14, 03:03:00,VALID,918.295,VALID,0,VALID,98.646,VALID,0.101885,VALID,18.8058,VALID,325,VALID,0,
2001-04-14, 03:04:00,VALID,918.315,VALID,0,VALID,98.6765,VALID,0.0849042,VALID,18.8025,VALID,325,VALID,0,
2001-04-14, 03:05:00,VALID,918.312,VALID,0,VALID,98.6536,VALID,0.101885,VALID,18.7864,VALID,325,VALID,0,
2001-04-14, 03:06:00,VALID,918.302,VALID,0,VALID,98.6854,VALID,0.0679233,VALID,18.7861,VALID,49,VALID,0.463682,
2001-04-14, 03:07:00,VALID,918.278,VALID,0,VALID,98.7248,VALID,0.0509425,VALID,18.7802,VALID,74,VALID,0.14337,
2001-04-14, 03:08:00,VALID,918.28,VALID,0,VALID,98.6994,VALID,-0.0509425,VALID,18.7682,VALID,123,VALID,0.259277,
2001-04-14, 03:09:00,VALID,918.279,VALID,0,VALID,98.6867,VALID,-0.0169808,VALID,18.7622,VALID,123,VALID,0.078342,
2001-04-14, 03:10:00,VALID,918.258,VALID,0,VALID,98.7172,VALID,0,VALID,18.762,VALID,123,VALID,0.000434028,
2001-04-14, 03:11:00,VALID,918.257,VALID,0,VALID,98.7032,VALID,-0.0509425,VALID,18.759,VALID,123,VALID,0.0163352,
2001-04-14, 03:12:00,VALID,918.251,VALID,0,VALID,98.721,VALID,-0.0169808,VALID,18.756,VALID,123,VALID,0.0534539,
2001-04-14, 03:13:00,VALID,918.23,VALID,0,VALID,98.7312,VALID,-0.0169808,VALID,18.7523,VALID,123,VALID,0,
2001-04-14, 03:14:00,VALID,918.229,VALID,0,VALID,98.7337,VALID,-0.0339617,VALID,18.7523,VALID,123,VALID,0,
2001-04-14, 03:15:00,VALID,918.224,VALID,0,VALID,98.7426,VALID,-0.0169808,VALID,18.7453,VALID,123,VALID,0,
2001-04-14, 03:16:00,VALID,918.221,VALID,0,VALID,98.7401,VALID,-0.0169808,VALID,18.7555,VALID,123,VALID,0,
2001-04-14, 03:17:00,VALID,918.22,VALID,0,VALID,98.721,VALID,0,VALID,18.7456,VALID,123,VALID,0,
2001-04-14, 03:18:00,VALID,918.217,VALID,0,VALID,98.7325,VALID,-0.0339617,VALID,18.7359,VALID,199,VALID,0.00607639,
2001-04-14, 03:19:00,VALID,918.201,VALID,0,VALID,98.7503,VALID,-0.0169808,VALID,18.7423,VALID,245,VALID,0.175781,
2001-04-14, 03:20:00,VALID,918.208,VALID,0,VALID,98.7617,VALID,0,VALID,18.7421,VALID,243,VALID,0.0994318,
2001-04-14, 03:21:00,VALID,918.207,VALID,0,VALID,98.7935,VALID,-0.0169808,VALID,18.749,VALID,232,VALID,0.237664,
2001-04-14, 03:22:00,VALID,918.205,VALID,0,VALID,98.7986,VALID,-0.0339617,VALID,18.7553,VALID,214,VALID,0.102902,
2001-04-14, 03:23:00,VALID,918.189,VALID,0,VALID,98.8075,VALID,-0.0339617,VALID,18.7592,VALID,207,VALID,0.145221,
2001-04-14, 03:24:00,VALID,918.182,VALID,0,VALID,98.8278,VALID,-0.0339617,VALID,18.7617,VALID,224,VALID,0.296664,
2001-04-14, 03:25:00,VALID,918.168,VALID,0,VALID,98.8444,VALID,-0.0169808,VALID,18.7652,VALID,231,VALID,0.0656672,
2001-04-14, 03:26:00,VALID,918.172,VALID,0,VALID,98.8469,VALID,-0.0509425,VALID,18.7548,VALID,235,VALID,0.253662,
2001-04-14, 03:27:00,VALID,918.163,VALID,0,VALID,98.8545,VALID,-0.0509425,VALID,18.7583,VALID,235,VALID,0.408637,
2001-04-14, 03:28:00,VALID,918.181,VALID,0,VALID,98.8723,VALID,-0.0169808,VALID,18.7587,VALID,226,VALID,0.156684,
2001-04-14, 03:29:00,VALID,918.183,VALID,0,VALID,98.8952,VALID,-0.0339617,VALID,18.7654,VALID,222,VALID,0.363636,
2001-04-14, 03:30:00,VALID,918.182,VALID,0,VALID,98.9346,VALID,-0.0339617,VALID,18.7751,VALID,195,VALID,0.237459,
2001-04-14, 03:31:00,VALID,918.187,VALID,0,VALID,98.9359,VALID,-0.0509425,VALID,18.7781,VALID,165,VALID,0.122321,